TimeMST,TemperatureF,Dew PointF,Humidity,Sea Level PressureIn,VisibilityMPH,Wind Direction,Wind SpeedMPH,Gust SpeedMPH,PrecipitationIn,Events,Conditions,WindDirDegrees,DateUTC
12:34 AM,21.2,19.4,93,29.94,0.8,North,10.4,-,0.00,Snow,Light Snow,360,2013-11-05 07:34:00
12:53 AM,21.0,18.0,88,29.97,0.8,North,12.7,-,0.01,Snow,Light Snow,10,2013-11-05 07:53:00
1:08 AM,21.2,17.6,86,29.93,0.8,North,12.7,-,0.00,Snow,Light Snow,360,2013-11-05 08:08:00
1:32 AM,19.4,17.6,93,29.93,1.0,North,15.0,-,0.00,Snow,Light Snow,350,2013-11-05 08:32:00
1:53 AM,19.9,17.1,89,29.99,1.2,North,11.5,-,0.00,Snow,Light Snow,350,2013-11-05 08:53:00
2:22 AM,19.4,17.6,93,29.94,2.0,North,10.4,-,0.00,Snow,Light Snow,350,2013-11-05 09:22:00
2:41 AM,19.4,17.6,93,29.93,3.0,North,6.9,-,0.00,Snow,Light Snow,10,2013-11-05 09:41:00
2:53 AM,19.9,17.1,89,30.00,8.0,North,4.6,-,0.00,,Overcast,10,2013-11-05 09:53:00
3:24 AM,19.4,15.8,86,29.93,10.0,NNE,3.5,-,N/A,,Overcast,20,2013-11-05 10:24:00
3:39 AM,19.4,15.8,86,29.93,10.0,NNE,3.5,-,N/A,,Overcast,30,2013-11-05 10:39:00
3:53 AM,19.0,15.1,85,30.01,10.0,Calm,Calm,-,N/A,,Overcast,0,2013-11-05 10:53:00
4:53 AM,17.1,14.0,88,30.04,10.0,Calm,Calm,-,N/A,,Overcast,0,2013-11-05 11:53:00
5:53 AM,10.9,9.0,92,30.11,10.0,NNW,9.2,-,N/A,,Clear,330,2013-11-05 12:53:00
6:53 AM,10.0,3.9,76,30.14,10.0,West,10.4,-,N/A,,Clear,270,2013-11-05 13:53:00
7:53 AM,10.9,6.1,81,30.18,10.0,NW,10.4,-,N/A,,Clear,320,2013-11-05 14:53:00
8:53 AM,12.9,3.0,65,30.19,10.0,West,4.6,-,N/A,,Clear,270,2013-11-05 15:53:00
9:53 AM,19.9,7.0,57,30.16,10.0,North,5.8,-,N/A,,Clear,10,2013-11-05 16:53:00
10:53 AM,19.9,8.1,60,30.16,10.0,West,9.2,-,N/A,,Clear,280,2013-11-05 17:53:00
11:53 AM,21.9,12.0,66,30.14,10.0,WNW,10.4,-,N/A,,Clear,300,2013-11-05 18:53:00
12:53 PM,23.0,12.9,65,30.13,10.0,NNW,10.4,-,N/A,,Clear,330,2013-11-05 19:53:00
1:53 PM,21.9,12.0,66,30.14,10.0,NW,13.8,-,N/A,,Clear,320,2013-11-05 20:53:00
2:53 PM,19.9,10.9,68,30.16,10.0,West,17.3,-,N/A,,Clear,260,2013-11-05 21:53:00
3:53 PM,17.1,9.0,71,30.19,10.0,West,10.4,-,N/A,,Clear,270,2013-11-05 22:53:00
4:53 PM,14.0,3.9,64,30.22,10.0,West,10.4,-,N/A,,Clear,260,2013-11-05 23:53:00
5:53 PM,10.0,1.9,70,30.30,10.0,WSW,6.9,-,N/A,,Clear,250,2013-11-06 00:53:00
6:53 PM,17.1,5.0,59,30.28,10.0,WSW,9.2,-,N/A,,Clear,240,2013-11-06 01:53:00
7:53 PM,15.1,5.0,64,30.29,10.0,South,10.4,-,N/A,,Clear,190,2013-11-06 02:53:00
8:53 PM,12.9,3.9,67,30.30,10.0,SSW,11.5,-,N/A,,Clear,200,2013-11-06 03:53:00
9:53 PM,16.0,5.0,62,30.25,10.0,WSW,13.8,-,N/A,,Clear,250,2013-11-06 04:53:00
10:53 PM,16.0,7.0,68,30.24,10.0,SW,23.0,-,N/A,,Clear,220,2013-11-06 05:53:00
11:53 PM,17.1,8.1,68,30.23,10.0,SW,23.0,31.1,N/A,,Clear,220,2013-11-06 06:53:00